Hourly Weather Roundup
Issued by NWS Central Illinois

Home | Current Version | Previous Version | Text Only | Print | Product List | Glossary On
Versions: 1 2 3 4 5 6 7 8 9 10 11 12 13 14 15 16 17 18 19 20 21 22 23 24 25 26 27 28 29 30 31 32 33 34 35 36 37 38 39 40 41 42 43 44 45 46 47 48 49 50
000
NZUS43 KILX 241810
HWRILX

AREA WEATHER ROUNDUP
NATIONAL WEATHER SERVICE, LINCOLN IL
100 PM CDT SUN JUL 24 2016


CITY           SKY/WX    TMP DP  RH WIND       PRES   REMARKS
BLOOMINGTON    MOSUNNY   89  80  74 S14       29.95S HX 106
6HR MIN TEMP:  77; 6HR MAX TEMP:  89;

CHAMPAIGN      SUNNY     88  78  72 S12       29.97S HX 101
6HR MIN TEMP:  76; 6HR MAX TEMP:  88;

DANVILLE       PTSUNNY   88  79  75 SW13      29.95R HX 102
6HR MIN TEMP:  73; 6HR MAX TEMP:  88;

DECATUR        SUNNY     92  77  61 SW13      29.95F HX 105
6HR MIN TEMP:  79; 6HR MAX TEMP:  92;

EFFINGHAM      MOSUNNY   90  78  67 S9        29.99F HX 104
FLORA          MOSUNNY   91  78  66 S5        29.99S HX 106
6HR MIN TEMP:  76; 6HR MAX TEMP:  92;

GALESBURG      MOSUNNY   89  78  70 SW10      29.90S HX 102
JACKSONVILLE   SUNNY     91  81  73 S8        29.92F HX 110
6HR MIN TEMP:  78; 6HR MAX TEMP:  91;

LACON          SUNNY     90  79  68 S14       29.88F HX 105
6HR MIN TEMP:  78; 6HR MAX TEMP:  91;

LAWRENCEVILLE  SUNNY     90  80  72 S9        29.99S HX 107
6HR MIN TEMP:  78; 6HR MAX TEMP:  90;

LITCHFIELD     MOSUNNY   88  78  70 S12       29.96F HX 101
$$


CITY           SKY/WX    TMP DP  RH WIND       PRES   REMARKS
LINCOLN        SUNNY     91  82  75 S12       29.93S HX 111
6HR MIN TEMP:  78; 6HR MAX TEMP:  91;

MACOMB         MOSUNNY   91  79  68 SW12      29.92S HX 107
MATTOON        MOSUNNY   89  76  65 SW8       29.97F HX 100
6HR MIN TEMP:  77; 6HR MAX TEMP:  89;

MT CARMEL AP   MOSUNNY   88  78  72 SW8       29.99S HX 102
6HR MIN TEMP:  75; 6HR MAX TEMP:  89;

OLNEY-NOBLE AP MOSUNNY   90  79  70 S8        29.99S HX 105
PARIS          MOSUNNY   89  81  76 S6        29.98F HX 107
6HR MIN TEMP:  74; 6HR MAX TEMP:  90;

PEORIA         SUNNY     90  81  74 S13       29.90F HX 109
6HR MIN TEMP:  78; 6HR MAX TEMP:  91;

PONTIAC        MOSUNNY   90  83  79 S12       29.93F HX 112
RANTOUL        NOT AVBL
ROBINSON       MOSUNNY   89  79  70 S8        29.99S HX 104
6HR MIN TEMP:  74; 6HR MAX TEMP:  90;

SPRINGFIELD    MOSUNNY   92  80  68 S10       29.93S HX 110
6HR MIN TEMP:  80; 6HR MAX TEMP:  92;

TAYLORVILLE    MOSUNNY   89  80  75 NW12      29.95F HX 106
$$

...REGIONAL REPORTS...


CITY           SKY/WX    TMP DP  RH WIND       PRES   REMARKS
CHICAGO O`HARE PTSUNNY   89  78  70 S16G23    29.88S HX 103
KANKAKEE       NOT AVBL
MOLINE         CLOUDY    92  77  61 SW12      29.86S HX 105
MOUNT STERLING SUNNY     92  78  64 SW10      29.91S HX 107
MOUNT VERNON   SUNNY     93  75  55 S9        29.98F HX 104
PITTSFIELD     SUNNY     92  81  71 S9        29.93F HX 112
QUINCY         SUNNY     94  77  57 SW10      29.91S HX 108
ROCKFORD       PTSUNNY   92  77  61 SW18      29.87S HX 105
$$


CITY           SKY/WX    TMP DP  RH WIND       PRES   REMARKS
BURLINGTON     CLOUDY    89  80  74 W8        29.88F HX 106
CEDAR RAPIDS   CLOUDY    85  81  88 NW12      29.89R HX 100
DES MOINES     MOSUNNY   87  68  52 N9        29.93R HX  90
KIRKSVILLE     CLOUDY    92  73  53 W7        29.92S HX 100
OTTUMWA        MOSUNNY   90  78  68 NW12      29.88F HX 104
ST LOUIS       MOSUNNY   98  76  49 SW5       29.95F HX 112
$$


CITY           SKY/WX    TMP DP  RH WIND       PRES   REMARKS
TERRE HAUTE    MOSUNNY   91  76  61 S8        29.98F HX 103
EVANSVILLE     MOSUNNY   90  76  63 SW12      30.00F HX 101
INDIANAPOLIS   PTSUNNY   91  76  61 SW13      30.00S HX 103
LAFAYETTE      MOSUNNY   89  77  67 SW13G18   29.96S HX 101
MADISON        PTSUNNY   85  78  80 SW5       29.83F HX  96
MILWAUKEE      PTSUNNY   91  76  61 SW20G28   29.84S HX 103
$$





USA.gov is the U.S. government's official web portal to all federal, state and local government web resources and services.